This is the latest recevied weather packets stored in our database for station/object ea1bqo-1. If no packets are shown the sender has not sent any weather packets the latest 10 day(s).
| Time | Temp. | Humidity | Pressure | Rain* | Wind** | Luminosity | Snow |
|---|---|---|---|---|---|---|---|
| 1787845436 | 17.22° C | 68% | 1008.1 hPa | 0 mm | - | - | - |
| 1787844896 | 17.78° C | 70% | 1008.1 hPa | 0 mm | - | - | - |
| 1787844356 | 17.22° C | 71% | 1008.2 hPa | 0 mm | - | - | - |
| 1787843816 | 16.67° C | 73% | 1008.1 hPa | 0.25 mm | - | - | - |
| 1787843276 | 16.67° C | 72% | 1008.2 hPa | 0.25 mm | - | - | - |
| 1787842736 | 16.67° C | 75% | 1008.2 hPa | 1.02 mm | - | - | - |
| 1787842196 | 16.67° C | 76% | 1008.2 hPa | 1.27 mm | - | - | - |
| 1787841656 | 16.11° C | 79% | 1008.3 hPa | 1.27 mm | - | - | - |
| 1787841116 | 15.56° C | 79% | 1008.4 hPa | 1.27 mm | - | - | - |
| 1787840576 | 15° C | 77% | 1008.2 hPa | 1.27 mm | - | - | - |
| 1787840036 | 15.56° C | 75% | 1008.3 hPa | 1.02 mm | - | - | - |
| 1787839496 | 16.11° C | 71% | 1008.4 hPa | 0.51 mm | - | - | - |
| 1787838956 | 16.11° C | 72% | 1008.2 hPa | 0 mm | - | - | - |
| 1787838416 | 16.11° C | 71% | 1008.2 hPa | 0 mm | - | - | - |
| 1787837876 | 16.67° C | 71% | 1008.1 hPa | 0 mm | - | - | - |
| 1787837336 | 16.67° C | 75% | 1008.1 hPa | 0 mm | - | - | - |
| 1787836796 | 16.11° C | 76% | 1008 hPa | 0.25 mm | - | - | - |
| 1787836256 | 15.56° C | 78% | 1007.9 hPa | 2.03 mm | - | - | - |
| 1787835716 | 15.56° C | 87% | 1007.7 hPa | 3.05 mm | - | - | - |
| 1787835176 | 14.44° C | 87% | 1007.8 hPa | 3.56 mm | - | - | - |
| 1787834636 | 13.33° C | 88% | 1007.2 hPa | 3.81 mm | - | - | - |
| 1787834096 | 13.33° C | 90% | 1007.1 hPa | 3.81 mm | - | - | - |
| 1787833556 | 13.33° C | 88% | 1007.2 hPa | 3.81 mm | - | - | - |
| 1787833016 | 14.44° C | 88% | 1007.9 hPa | 2.79 mm | - | - | - |
| 1787832476 | 15° C | 86% | 1007.5 hPa | 1.52 mm | - | - | - |
* Rain latest hour (hover to see other rain measurements)
** Current wind speed in m/s (hover to see current wind gust speed)